Time,TemperatureF,DewpointF,PressureIn,WindDirection,WindDirectionDegrees,WindSpeedMPH,WindSpeedGustMPH,Humidity,HourlyPrecipIn,Conditions,Clouds,dailyrainin,SoftwareType,DateUTC
2013-04-29 00:01:00,52.3,28.1,29.74,ESE,112,0.0,0.0,39,0.00,CLR,,0.00,WeatherDisplay:10.37,2013-04-29 04:01:00,
2013-04-29 00:06:00,52.3,27.5,29.74,ESE,112,0.0,0.0,38,0.00,CLR,,0.00,WeatherDisplay:10.37,2013-04-29 04:06:00,
2013-04-29 00:11:00,52.3,28.1,29.74,ESE,112,0.0,0.0,39,0.00,CLR,,0.00,WeatherDisplay:10.37,2013-04-29 04:11:00,
2013-04-29 00:16:00,52.3,27.5,29.75,ESE,112,0.0,0.0,38,0.00,CLR,,0.00,WeatherDisplay:10.37,2013-04-29 04:16:00,
2013-04-29 00:21:00,52.5,27.6,29.75,ENE,67,0.0,0.0,38,0.00,CLR,,0.00,WeatherDisplay:10.37,2013-04-29 04:21:00,
2013-04-29 00:26:00,52.3,27.5,29.75,ESE,112,0.0,0.0,38,0.00,CLR,,0.00,WeatherDisplay:10.37,2013-04-29 04:26:00,
2013-04-29 00:31:00,52.3,27.5,29.75,ESE,112,0.0,0.0,38,0.00,CLR,,0.00,WeatherDisplay:10.37,2013-04-29 04:31:00,
2013-04-29 00:36:00,52.3,27.5,29.69,ESE,112,0.0,0.0,38,0.00,CLR,,0.00,WeatherDisplay:10.37,2013-04-29 04:36:00,
2013-04-29 00:41:00,52.3,27.5,29.69,ESE,112,0.0,0.0,38,0.00,CLR,,0.00,WeatherDisplay:10.37,2013-04-29 04:41:00,
2013-04-29 00:46:00,52.2,27.3,29.70,ESE,112,0.0,0.0,38,0.00,CLR,,0.00,WeatherDisplay:10.37,2013-04-29 04:46:00,
2013-04-29 00:51:00,52.2,27.3,29.69,ESE,112,0.0,0.0,38,0.00,CLR,,0.00,WeatherDisplay:10.37,2013-04-29 04:51:00,
2013-04-29 00:56:00,52.2,27.3,29.69,ESE,112,0.0,0.0,38,0.00,CLR,,0.00,WeatherDisplay:10.37,2013-04-29 04:56:00,
2013-04-29 01:01:00,52.2,27.3,29.70,ESE,112,0.0,0.0,38,0.00,CLR,,0.00,WeatherDisplay:10.37,2013-04-29 05:01:00,
2013-04-29 01:06:00,52.2,27.3,29.70,ESE,112,0.0,0.0,38,0.00,CLR,,0.00,WeatherDisplay:10.37,2013-04-29 05:06:00,
2013-04-29 01:11:00,52.2,27.3,29.70,ESE,112,0.0,0.0,38,0.00,CLR,,0.00,WeatherDisplay:10.37,2013-04-29 05:11:00,
2013-04-29 01:16:00,52.2,27.3,29.70,ESE,112,0.0,0.0,38,0.00,CLR,,0.00,WeatherDisplay:10.37,2013-04-29 05:16:00,
2013-04-29 01:21:00,52.2,27.3,29.71,ESE,112,0.0,0.0,38,0.00,CLR,,0.00,WeatherDisplay:10.37,2013-04-29 05:21:00,
2013-04-29 01:26:00,52.2,27.3,29.71,ESE,112,0.0,0.0,38,0.00,CLR,,0.00,WeatherDisplay:10.37,2013-04-29 05:26:00,
2013-04-29 01:31:00,52.2,27.3,29.71,ESE,112,0.0,0.0,38,0.00,CLR,,0.00,WeatherDisplay:10.37,2013-04-29 05:31:00,
2013-04-29 01:36:00,52.2,27.3,29.71,ESE,112,0.0,0.0,38,0.00,CLR,,0.00,WeatherDisplay:10.37,2013-04-29 05:36:00,
2013-04-29 01:41:00,52.2,27.3,29.71,ESE,112,0.0,0.0,38,0.00,CLR,,0.00,WeatherDisplay:10.37,2013-04-29 05:41:00,
2013-04-29 01:46:00,52.2,27.3,29.71,ESE,112,0.0,0.0,38,0.00,CLR,,0.00,WeatherDisplay:10.37,2013-04-29 05:46:00,
2013-04-29 01:51:00,52.2,27.3,29.71,ESE,112,0.0,0.0,38,0.00,CLR,,0.00,WeatherDisplay:10.37,2013-04-29 05:51:00,
2013-04-29 01:56:00,52.2,27.3,29.72,ESE,112,0.0,0.0,38,0.00,CLR,,0.00,WeatherDisplay:10.37,2013-04-29 05:56:00,
2013-04-29 02:01:00,52.2,27.3,29.72,ESE,112,0.0,0.0,38,0.00,CLR,,0.00,WeatherDisplay:10.37,2013-04-29 06:01:00,
2013-04-29 02:06:00,52.2,27.3,29.72,ESE,112,0.0,0.0,38,0.00,CLR,,0.00,WeatherDisplay:10.37,2013-04-29 06:06:00,
2013-04-29 02:11:00,52.2,27.3,29.73,ESE,112,0.0,0.0,38,0.00,CLR,,0.00,WeatherDisplay:10.37,2013-04-29 06:11:00,
2013-04-29 02:16:00,52.0,27.1,29.73,ESE,112,0.0,0.0,38,0.00,CLR,,0.00,WeatherDisplay:10.37,2013-04-29 06:16:00,
2013-04-29 02:21:00,52.0,27.1,29.72,ESE,112,0.0,0.0,38,0.00,CLR,,0.00,WeatherDisplay:10.37,2013-04-29 06:21:00,
2013-04-29 02:26:00,52.0,27.1,29.73,ESE,112,0.0,0.0,38,0.00,CLR,,0.00,WeatherDisplay:10.37,2013-04-29 06:26:00,
2013-04-29 02:31:00,52.0,26.5,29.73,ESE,112,0.0,0.0,37,0.00,CLR,,0.00,WeatherDisplay:10.37,2013-04-29 06:31:00,
2013-04-29 02:36:00,52.0,27.1,29.73,ESE,112,0.0,0.0,38,0.00,CLR,,0.00,WeatherDisplay:10.37,2013-04-29 06:36:00,
2013-04-29 02:41:00,52.0,26.5,29.73,ESE,112,0.0,0.0,37,0.00,CLR,,0.00,WeatherDisplay:10.37,2013-04-29 06:41:00,
2013-04-29 02:46:00,52.0,26.5,29.73,ESE,112,0.0,0.0,37,0.00,CLR,,0.00,WeatherDisplay:10.37,2013-04-29 06:46:00,
2013-04-29 02:51:00,52.0,26.5,29.73,ESE,112,0.0,0.0,37,0.00,CLR,,0.00,WeatherDisplay:10.37,2013-04-29 06:51:00,
2013-04-29 02:56:00,52.0,26.5,29.74,ESE,112,0.0,0.0,37,0.00,CLR,,0.00,WeatherDisplay:10.37,2013-04-29 06:56:00,
2013-04-29 03:01:00,52.2,26.6,29.73,ESE,112,0.0,0.0,37,0.00,CLR,,0.00,WeatherDisplay:10.37,2013-04-29 07:01:00,
2013-04-29 03:06:00,52.0,26.5,29.73,ESE,112,0.0,0.0,37,0.00,CLR,,0.00,WeatherDisplay:10.37,2013-04-29 07:06:00,
2013-04-29 03:11:00,52.0,26.5,29.73,ESE,112,0.0,0.0,37,0.00,CLR,,0.00,WeatherDisplay:10.37,2013-04-29 07:11:00,
2013-04-29 03:16:00,52.0,26.5,29.73,ESE,112,0.0,0.0,37,0.00,CLR,,0.00,WeatherDisplay:10.37,2013-04-29 07:16:00,
2013-04-29 03:21:00,52.0,26.5,29.74,ESE,112,0.0,0.0,37,0.00,CLR,,0.00,WeatherDisplay:10.37,2013-04-29 07:21:00,
2013-04-29 03:26:00,52.0,26.5,29.74,ESE,112,0.0,0.0,37,0.00,CLR,,0.00,WeatherDisplay:10.37,2013-04-29 07:26:00,
2013-04-29 03:31:00,52.0,26.5,29.74,ESE,112,0.0,0.0,37,0.00,CLR,,0.00,WeatherDisplay:10.37,2013-04-29 07:31:00,
2013-04-29 03:36:00,52.0,26.5,29.75,ESE,112,0.0,0.0,37,0.00,CLR,,0.00,WeatherDisplay:10.37,2013-04-29 07:36:00,
2013-04-29 03:41:00,52.0,26.5,29.75,ESE,112,0.0,0.0,37,0.00,CLR,,0.00,WeatherDisplay:10.37,2013-04-29 07:41:00,
2013-04-29 03:46:00,52.0,26.5,29.75,SW,225,0.0,0.0,37,0.00,CLR,,0.00,WeatherDisplay:10.37,2013-04-29 07:46:00,
2013-04-29 03:51:00,52.0,26.5,29.75,SW,225,0.0,0.0,37,0.00,CLR,,0.00,WeatherDisplay:10.37,2013-04-29 07:51:00,
2013-04-29 03:56:00,52.0,26.5,29.75,SW,225,0.0,0.0,37,0.00,CLR,,0.00,WeatherDisplay:10.37,2013-04-29 07:56:00,
2013-04-29 04:01:00,51.8,26.3,29.76,NW,315,0.0,0.0,37,0.00,CLR,,0.00,WeatherDisplay:10.37,2013-04-29 08:01:00,
2013-04-29 04:06:00,51.8,26.3,29.76,West,270,0.0,0.0,37,0.00,CLR,,0.00,WeatherDisplay:10.37,2013-04-29 08:06:00,
2013-04-29 04:11:00,51.8,26.3,29.76,WSW,247,0.0,0.0,37,0.00,CLR,,0.00,WeatherDisplay:10.37,2013-04-29 08:11:00,
2013-04-29 04:16:00,51.8,26.3,29.77,WSW,247,0.0,0.0,37,0.00,CLR,,0.00,WeatherDisplay:10.37,2013-04-29 08:16:00,
2013-04-29 04:21:00,51.8,27.6,29.71,SW,225,0.0,0.0,39,0.00,CLR,,0.00,WeatherDisplay:10.37,2013-04-29 08:21:00,
2013-04-29 04:26:00,51.8,27.6,29.71,SW,225,0.0,0.0,39,0.00,CLR,,0.00,WeatherDisplay:10.37,2013-04-29 08:26:00,
2013-04-29 04:31:00,51.8,27.6,29.71,SW,225,0.0,0.0,39,0.00,CLR,,0.00,WeatherDisplay:10.37,2013-04-29 08:31:00,
2013-04-29 04:36:00,51.8,27.6,29.71,WNW,292,0.0,0.0,39,0.00,CLR,,0.00,WeatherDisplay:10.37,2013-04-29 08:36:00,
2013-04-29 04:41:00,51.8,27.6,29.71,SW,225,0.3,0.3,39,0.00,CLR,,0.00,WeatherDisplay:10.37,2013-04-29 08:41:00,
2013-04-29 04:46:00,51.8,27.6,29.72,SW,225,0.3,0.0,39,0.00,CLR,,0.00,WeatherDisplay:10.37,2013-04-29 08:46:00,
2013-04-29 04:51:00,51.8,27.6,29.72,SW,225,0.3,0.0,39,0.00,CLR,,0.00,WeatherDisplay:10.37,2013-04-29 08:51:00,
2013-04-29 04:56:00,51.8,27.6,29.73,SW,225,0.3,0.0,39,0.00,CLR,,0.00,WeatherDisplay:10.37,2013-04-29 08:56:00,
2013-04-29 05:01:00,51.8,27.0,29.73,SW,225,0.3,0.0,38,0.00,CLR,,0.00,WeatherDisplay:10.37,2013-04-29 09:01:00,
2013-04-29 05:06:00,51.8,27.0,29.73,West,270,0.3,0.0,38,0.00,CLR,,0.00,WeatherDisplay:10.37,2013-04-29 09:06:00,
2013-04-29 05:11:00,51.8,27.6,29.73,WNW,292,0.3,0.0,39,0.00,CLR,,0.00,WeatherDisplay:10.37,2013-04-29 09:11:00,
2013-04-29 05:16:00,51.8,27.0,29.74,West,270,1.2,1.2,38,0.00,CLR,,0.00,WeatherDisplay:10.37,2013-04-29 09:16:00,
2013-04-29 05:21:00,51.8,27.0,29.73,NW,315,1.7,1.7,38,0.00,CLR,,0.00,WeatherDisplay:10.37,2013-04-29 09:21:00,
2013-04-29 05:26:00,51.8,27.0,29.74,West,270,1.7,1.7,38,0.00,CLR,,0.00,WeatherDisplay:10.37,2013-04-29 09:26:00,
2013-04-29 05:31:00,51.8,27.0,29.75,WNW,292,1.7,1.7,38,0.00,CLR,,0.00,WeatherDisplay:10.37,2013-04-29 09:31:00,
2013-04-29 05:36:00,51.8,27.0,29.74,WSW,247,2.3,2.3,38,0.00,CLR,,0.00,WeatherDisplay:10.37,2013-04-29 09:36:00,
2013-04-29 05:41:00,51.6,26.8,29.75,WNW,292,2.3,0.0,38,0.00,CLR,,0.00,WeatherDisplay:10.37,2013-04-29 09:41:00,
2013-04-29 05:46:00,51.6,26.8,29.75,West,270,2.3,0.0,38,0.00,CLR,,0.00,WeatherDisplay:10.37,2013-04-29 09:46:00,
2013-04-29 05:51:00,51.6,26.8,29.75,SW,225,2.3,2.3,38,0.00,CLR,,0.00,WeatherDisplay:10.37,2013-04-29 09:51:00,
2013-04-29 05:56:00,51.6,26.8,29.75,SW,225,2.3,3.6,38,0.00,CLR,,0.00,WeatherDisplay:10.37,2013-04-29 09:56:00,
2013-04-29 06:01:00,51.6,26.8,29.75,WNW,292,3.6,3.6,38,0.00,CLR,,0.00,WeatherDisplay:10.37,2013-04-29 10:01:00,
2013-04-29 06:06:00,51.6,26.8,29.75,WNW,292,3.6,3.6,38,0.00,CLR,,0.00,WeatherDisplay:10.37,2013-04-29 10:06:00,
2013-04-29 06:11:00,51.6,26.8,29.75,WNW,292,3.6,3.6,38,0.00,CLR,,0.00,WeatherDisplay:10.37,2013-04-29 10:11:00,
2013-04-29 06:16:00,51.6,26.8,29.75,WNW,292,3.6,3.6,38,0.00,CLR,,0.00,WeatherDisplay:10.37,2013-04-29 10:16:00,
2013-04-29 06:21:00,51.6,26.8,29.77,WNW,292,3.6,3.6,38,0.00,CLR,,0.00,WeatherDisplay:10.37,2013-04-29 10:21:00,
2013-04-29 06:26:00,51.6,26.8,29.77,NW,315,3.6,3.6,38,0.00,CLR,,0.00,WeatherDisplay:10.37,2013-04-29 10:26:00,
2013-04-29 06:31:00,51.6,26.8,29.77,WNW,292,3.6,3.6,38,0.00,CLR,,0.00,WeatherDisplay:10.37,2013-04-29 10:31:00,
2013-04-29 06:36:00,51.6,26.8,29.77,West,270,3.6,3.6,38,0.00,CLR,,0.00,WeatherDisplay:10.37,2013-04-29 10:36:00,
2013-04-29 06:41:00,51.6,26.8,29.78,NNW,337,3.6,3.6,38,0.00,CLR,,0.00,WeatherDisplay:10.37,2013-04-29 10:41:00,
2013-04-29 06:46:00,51.6,26.8,29.78,NNW,337,3.6,3.6,38,0.00,CLR,,0.00,WeatherDisplay:10.37,2013-04-29 10:46:00,
2013-04-29 06:51:00,51.6,26.8,29.78,WNW,292,3.6,0.0,38,0.00,CLR,,0.00,WeatherDisplay:10.37,2013-04-29 10:51:00,
2013-04-29 06:56:00,51.6,26.8,29.78,WNW,292,3.6,0.0,38,0.00,CLR,,0.00,WeatherDisplay:10.37,2013-04-29 10:56:00,
2013-04-29 07:01:00,51.6,26.8,29.80,SSW,202,3.6,0.0,38,0.00,CLR,,0.00,WeatherDisplay:10.37,2013-04-29 11:01:00,
2013-04-29 07:06:00,51.6,26.8,29.80,SSW,202,3.6,0.0,38,0.00,CLR,,0.00,WeatherDisplay:10.37,2013-04-29 11:06:00,
2013-04-29 07:11:00,51.6,26.8,29.80,WSW,247,0.0,0.0,38,0.00,CLR,,0.00,WeatherDisplay:10.37,2013-04-29 11:11:00,
2013-04-29 07:16:00,51.8,27.6,29.80,SW,225,1.3,0.0,39,0.00,CLR,,0.00,WeatherDisplay:10.37,2013-04-29 11:16:00,
2013-04-29 07:21:00,51.8,27.6,29.81,SW,225,1.3,0.0,39,0.00,CLR,,0.00,WeatherDisplay:10.37,2013-04-29 11:21:00,
2013-04-29 07:26:00,51.8,27.0,29.80,SSW,202,1.3,0.0,38,0.00,CLR,,0.00,WeatherDisplay:10.37,2013-04-29 11:26:00,
2013-04-29 07:31:00,51.8,27.6,29.81,SW,225,1.3,0.0,39,0.00,CLR,,0.00,WeatherDisplay:10.37,2013-04-29 11:31:00,
2013-04-29 07:36:00,51.8,27.6,29.81,SW,225,1.3,1.3,39,0.00,CLR,,0.00,WeatherDisplay:10.37,2013-04-29 11:36:00,
2013-04-29 07:41:00,51.8,27.6,29.81,SW,225,1.3,0.0,39,0.00,CLR,,0.00,WeatherDisplay:10.37,2013-04-29 11:41:00,
2013-04-29 07:46:00,51.8,27.6,29.81,WNW,292,1.3,1.3,39,0.00,CLR,,0.00,WeatherDisplay:10.37,2013-04-29 11:46:00,
2013-04-29 07:51:00,51.8,27.6,29.83,SW,225,1.3,1.3,39,0.00,CLR,,0.00,WeatherDisplay:10.37,2013-04-29 11:51:00,
2013-04-29 07:56:00,52.0,27.8,29.83,SSW,202,1.3,0.0,39,0.00,CLR,,0.00,WeatherDisplay:10.37,2013-04-29 11:56:00,
2013-04-29 08:01:00,52.2,27.9,29.83,SSW,202,1.3,0.0,39,0.00,CLR,,0.00,WeatherDisplay:10.37,2013-04-29 12:01:00,
2013-04-29 08:06:00,52.3,28.1,29.77,SSW,202,1.3,0.0,39,0.00,CLR,,0.00,WeatherDisplay:10.37,2013-04-29 12:06:00,
2013-04-29 08:11:00,52.5,28.2,29.77,SW,225,1.2,1.2,39,0.00,CLR,,0.00,WeatherDisplay:10.37,2013-04-29 12:11:00,
2013-04-29 08:16:00,52.9,28.6,29.77,SW,225,1.2,0.0,39,0.00,CLR,,0.00,WeatherDisplay:10.37,2013-04-29 12:16:00,
2013-04-29 08:21:00,53.1,28.7,29.77,SW,225,2.3,2.3,39,0.00,CLR,,0.00,WeatherDisplay:10.37,2013-04-29 12:21:00,
2013-04-29 08:26:00,53.1,28.7,29.77,SW,225,2.3,0.0,39,0.00,CLR,,0.00,WeatherDisplay:10.37,2013-04-29 12:26:00,
2013-04-29 08:31:00,53.2,28.9,29.77,SSW,202,2.3,0.0,39,0.00,CLR,,0.00,WeatherDisplay:10.37,2013-04-29 12:31:00,
2013-04-29 08:36:00,53.4,29.1,29.77,WSW,247,2.3,0.0,39,0.00,CLR,,0.00,WeatherDisplay:10.37,2013-04-29 12:36:00,
2013-04-29 08:41:00,53.8,29.4,29.78,SSW,202,2.3,2.3,39,0.00,CLR,,0.00,WeatherDisplay:10.37,2013-04-29 12:41:00,
2013-04-29 08:46:00,54.0,29.5,29.78,WSW,247,2.3,2.3,39,0.00,CLR,,0.00,WeatherDisplay:10.37,2013-04-29 12:46:00,
2013-04-29 08:51:00,53.8,29.4,29.80,SW,225,2.3,2.3,39,0.00,CLR,,0.00,WeatherDisplay:10.37,2013-04-29 12:51:00,
2013-04-29 08:56:00,53.8,29.4,29.80,WSW,247,2.3,0.0,39,0.00,CLR,,0.00,WeatherDisplay:10.37,2013-04-29 12:56:00,
2013-04-29 09:01:00,53.8,29.4,29.80,SSW,202,2.3,2.3,39,0.00,CLR,,0.00,WeatherDisplay:10.37,2013-04-29 13:01:00,
2013-04-29 09:06:00,54.0,29.5,29.80,West,270,2.3,2.3,39,0.00,CLR,,0.00,WeatherDisplay:10.37,2013-04-29 13:06:00,
2013-04-29 09:11:00,54.0,29.5,29.80,NW,315,1.2,1.2,39,0.00,CLR,,0.00,WeatherDisplay:10.37,2013-04-29 13:11:00,
2013-04-29 09:16:00,54.1,29.7,29.81,SW,225,1.2,0.0,39,0.00,CLR,,0.00,WeatherDisplay:10.37,2013-04-29 13:16:00,
2013-04-29 09:21:00,54.3,29.2,29.80,WNW,292,1.2,1.2,38,0.00,CLR,,0.00,WeatherDisplay:10.37,2013-04-29 13:21:00,
2013-04-29 09:26:00,54.5,29.4,29.80,WNW,292,2.8,2.8,38,0.00,CLR,,0.00,WeatherDisplay:10.37,2013-04-29 13:26:00,
2013-04-29 09:31:00,54.7,29.5,29.83,West,270,2.8,2.8,38,0.00,CLR,,0.00,WeatherDisplay:10.37,2013-04-29 13:31:00,
2013-04-29 09:36:00,55.0,29.9,29.83,WSW,247,2.8,2.8,38,0.00,CLR,,0.00,WeatherDisplay:10.37,2013-04-29 13:36:00,
2013-04-29 09:41:00,55.4,30.2,29.83,WNW,292,2.8,2.8,38,0.00,CLR,,0.00,WeatherDisplay:10.37,2013-04-29 13:41:00,
2013-04-29 09:46:00,55.2,30.0,29.83,WSW,247,2.8,2.8,38,0.00,CLR,,0.00,WeatherDisplay:10.37,2013-04-29 13:46:00,
2013-04-29 09:51:00,55.2,30.0,29.83,WNW,292,2.8,2.8,38,0.00,CLR,,0.00,WeatherDisplay:10.37,2013-04-29 13:51:00,
2013-04-29 09:56:00,55.4,30.2,29.83,WNW,292,3.5,3.5,38,0.00,CLR,,0.00,WeatherDisplay:10.37,2013-04-29 13:56:00,
2013-04-29 10:01:00,55.2,30.0,29.83,NW,315,3.5,3.5,38,0.00,CLR,,0.00,WeatherDisplay:10.37,2013-04-29 14:01:00,
2013-04-29 10:06:00,55.2,30.0,29.83,WNW,292,3.5,3.5,38,0.00,CLR,,0.00,WeatherDisplay:10.37,2013-04-29 14:06:00,
2013-04-29 10:11:00,55.0,29.9,29.81,NW,315,1.7,1.7,38,0.00,CLR,,0.00,WeatherDisplay:10.37,2013-04-29 14:11:00,
2013-04-29 10:16:00,55.2,30.0,29.81,West,270,1.7,1.7,38,0.00,CLR,,0.00,WeatherDisplay:10.37,2013-04-29 14:16:00,
2013-04-29 10:21:00,55.4,30.2,29.81,West,270,2.6,2.6,38,0.00,CLR,,0.00,WeatherDisplay:10.37,2013-04-29 14:21:00,
2013-04-29 10:26:00,55.8,30.5,29.81,West,270,4.0,4.0,38,0.00,CLR,,0.00,WeatherDisplay:10.37,2013-04-29 14:26:00,
2013-04-29 10:31:00,55.8,31.2,29.81,NNW,337,4.0,4.0,39,0.00,CLR,,0.00,WeatherDisplay:10.37,2013-04-29 14:31:00,
2013-04-29 10:36:00,55.8,31.2,29.81,West,270,4.0,4.0,39,0.00,CLR,,0.00,WeatherDisplay:10.37,2013-04-29 14:36:00,
2013-04-29 10:41:00,55.8,31.2,29.83,WNW,292,4.0,4.0,39,0.00,CLR,,0.00,WeatherDisplay:10.37,2013-04-29 14:41:00,
2013-04-29 10:46:00,55.8,30.5,29.81,WSW,247,4.0,4.0,38,0.00,CLR,,0.00,WeatherDisplay:10.37,2013-04-29 14:46:00,
2013-04-29 10:51:00,55.9,30.7,29.81,SW,225,4.0,0.0,38,0.00,CLR,,0.00,WeatherDisplay:10.37,2013-04-29 14:51:00,
2013-04-29 10:56:00,56.1,30.8,29.78,WSW,247,4.0,4.0,38,0.00,CLR,,0.00,WeatherDisplay:10.37,2013-04-29 14:56:00,
2013-04-29 11:01:00,56.1,30.8,29.78,SW,225,4.0,4.0,38,0.00,CLR,,0.00,WeatherDisplay:10.37,2013-04-29 15:01:00,
2013-04-29 11:06:00,56.3,31.0,29.78,West,270,4.0,4.0,38,0.00,CLR,,0.00,WeatherDisplay:10.37,2013-04-29 15:06:00,
2013-04-29 11:11:00,56.3,31.0,29.78,WSW,247,2.6,2.6,38,0.00,CLR,,0.00,WeatherDisplay:10.37,2013-04-29 15:11:00,
2013-04-29 11:16:00,57.0,31.6,29.80,SW,225,3.5,3.5,38,0.00,CLR,,0.00,WeatherDisplay:10.37,2013-04-29 15:16:00,
2013-04-29 11:21:00,57.0,31.6,29.80,SW,225,3.5,3.5,38,0.00,CLR,,0.00,WeatherDisplay:10.37,2013-04-29 15:21:00,
2013-04-29 11:26:00,57.0,31.6,29.81,SW,225,3.5,3.5,38,0.00,CLR,,0.00,WeatherDisplay:10.37,2013-04-29 15:26:00,
2013-04-29 11:31:00,59.9,34.2,29.80,SW,225,3.5,3.5,38,0.00,CLR,,0.00,WeatherDisplay:10.37,2013-04-29 15:31:00,
2013-04-29 11:36:00,58.1,32.6,29.78,SW,225,3.5,3.5,38,0.00,CLR,,0.00,WeatherDisplay:10.37,2013-04-29 15:36:00,
2013-04-29 11:41:00,58.6,33.1,29.80,WNW,292,3.5,3.5,38,0.00,CLR,,0.00,WeatherDisplay:10.37,2013-04-29 15:41:00,
2013-04-29 11:46:00,58.8,32.6,29.85,WNW,292,3.5,3.5,37,0.00,CLR,,0.00,WeatherDisplay:10.37,2013-04-29 15:46:00,
2013-04-29 11:51:00,58.8,33.9,29.78,South,180,3.5,3.5,39,0.00,CLR,,0.00,WeatherDisplay:10.37,2013-04-29 15:51:00,
2013-04-29 11:56:00,59.4,34.4,29.78,South,180,3.5,3.5,39,0.00,CLR,,0.00,WeatherDisplay:10.37,2013-04-29 15:56:00,
2013-04-29 12:01:00,61.0,34.5,29.85,North,0,3.5,3.5,37,0.00,CLR,,0.00,WeatherDisplay:10.37,2013-04-29 16:01:00,
2013-04-29 12:06:00,62.4,37.8,29.77,NNW,337,3.5,3.5,40,0.00,CLR,,0.00,WeatherDisplay:10.37,2013-04-29 16:06:00,
2013-04-29 12:11:00,62.2,36.3,29.84,NW,315,3.6,3.6,38,0.00,CLR,,0.00,WeatherDisplay:10.37,2013-04-29 16:11:00,
2013-04-29 12:16:00,62.6,36.6,29.85,SSW,202,3.6,3.6,38,0.00,CLR,,0.00,WeatherDisplay:10.37,2013-04-29 16:16:00,
2013-04-29 12:21:00,62.8,36.8,29.84,NNW,337,3.6,3.6,38,0.00,CLR,,0.00,WeatherDisplay:10.37,2013-04-29 16:21:00,
2013-04-29 12:26:00,62.8,37.4,29.84,WNW,292,3.6,3.6,39,0.00,CLR,,0.00,WeatherDisplay:10.37,2013-04-29 16:26:00,
2013-04-29 12:31:00,62.8,37.4,29.84,WNW,292,3.6,3.6,39,0.00,CLR,,0.00,WeatherDisplay:10.37,2013-04-29 16:31:00,
2013-04-29 12:36:00,64.4,39.5,29.84,WSW,247,4.0,4.0,40,0.00,CLR,,0.00,WeatherDisplay:10.37,2013-04-29 16:36:00,
2013-04-29 12:41:00,66.7,41.6,29.84,North,0,5.8,5.8,40,0.00,CLR,,0.00,WeatherDisplay:10.37,2013-04-29 16:41:00,
2013-04-29 12:46:00,66.9,42.4,29.84,East,90,5.8,0.0,41,0.00,CLR,,0.00,WeatherDisplay:10.37,2013-04-29 16:46:00,
2013-04-29 12:51:00,68.4,43.7,29.83,WNW,292,5.8,5.8,41,0.00,CLR,,0.00,WeatherDisplay:10.37,2013-04-29 16:51:00,
2013-04-29 12:56:00,70.0,45.2,29.83,South,180,5.8,5.8,41,0.00,CLR,,0.00,WeatherDisplay:10.37,2013-04-29 16:56:00,
2013-04-29 13:01:00,69.8,45.0,29.83,WNW,292,5.8,5.8,41,0.00,CLR,,0.00,WeatherDisplay:10.37,2013-04-29 17:01:00,
2013-04-29 13:06:00,70.2,45.4,29.83,South,180,5.8,5.8,41,0.00,CLR,,0.00,WeatherDisplay:10.37,2013-04-29 17:06:00,
2013-04-29 13:11:00,70.5,45.7,29.82,SSE,157,2.3,2.3,41,0.00,CLR,,0.00,WeatherDisplay:10.37,2013-04-29 17:11:00,
2013-04-29 13:16:00,70.5,45.7,29.82,SSE,157,2.3,2.3,41,0.00,CLR,,0.00,WeatherDisplay:10.37,2013-04-29 17:16:00,
2013-04-29 13:21:00,71.8,46.8,29.82,WNW,292,3.3,3.3,41,0.00,CLR,,0.00,WeatherDisplay:10.37,2013-04-29 17:21:00,
2013-04-29 13:26:00,72.3,46.6,29.82,SW,225,3.5,3.5,40,0.00,CLR,,0.00,WeatherDisplay:10.37,2013-04-29 17:26:00,
2013-04-29 13:31:00,72.7,47.0,29.81,SSW,202,3.8,3.8,40,0.00,CLR,,0.00,WeatherDisplay:10.37,2013-04-29 17:31:00,
2013-04-29 13:36:00,73.4,46.9,29.80,ENE,67,3.8,3.8,39,0.00,CLR,,0.00,WeatherDisplay:10.37,2013-04-29 17:36:00,
2013-04-29 13:41:00,73.2,46.8,29.79,SSE,157,3.8,3.8,39,0.00,CLR,,0.00,WeatherDisplay:10.37,2013-04-29 17:41:00,
2013-04-29 13:46:00,72.5,45.4,29.79,SE,135,3.8,3.8,38,0.00,CLR,,0.00,WeatherDisplay:10.37,2013-04-29 17:46:00,
2013-04-29 13:51:00,72.5,45.4,29.77,SE,135,3.8,3.8,38,0.00,CLR,,0.00,WeatherDisplay:10.37,2013-04-29 17:51:00,
2013-04-29 13:56:00,74.7,48.1,29.79,WSW,247,3.8,3.8,39,0.00,CLR,,0.00,WeatherDisplay:10.37,2013-04-29 17:56:00,
2013-04-29 14:01:00,73.4,46.9,29.79,SSE,157,5.1,5.1,39,0.00,CLR,,0.00,WeatherDisplay:10.37,2013-04-29 18:01:00,
2013-04-29 14:06:00,71.2,45.0,29.78,NE,45,5.1,5.1,39,0.00,CLR,,0.00,WeatherDisplay:10.37,2013-04-29 18:06:00,
2013-04-29 14:11:00,72.1,45.8,29.78,NNW,337,3.8,3.8,39,0.00,CLR,,0.00,WeatherDisplay:10.37,2013-04-29 18:11:00,
2013-04-29 14:16:00,71.8,45.5,29.79,SSW,202,3.8,3.8,39,0.00,CLR,,0.00,WeatherDisplay:10.37,2013-04-29 18:16:00,
2013-04-29 14:21:00,73.4,46.9,29.78,NE,45,3.8,3.8,39,0.00,CLR,,0.00,WeatherDisplay:10.37,2013-04-29 18:21:00,
2013-04-29 14:26:00,73.9,47.4,29.77,NE,45,3.8,3.8,39,0.00,CLR,,0.00,WeatherDisplay:10.37,2013-04-29 18:26:00,
2013-04-29 14:31:00,74.1,46.9,29.77,SSE,157,3.8,3.8,38,0.00,CLR,,0.00,WeatherDisplay:10.37,2013-04-29 18:31:00,
2013-04-29 14:36:00,75.2,47.8,29.75,SSE,157,4.9,4.9,38,0.00,CLR,,0.00,WeatherDisplay:10.37,2013-04-29 18:36:00,
2013-04-29 14:41:00,75.7,48.3,29.75,South,180,4.9,4.9,38,0.00,CLR,,0.00,WeatherDisplay:10.37,2013-04-29 18:41:00,
2013-04-29 14:46:00,75.6,48.2,29.81,South,180,5.1,5.1,38,0.00,CLR,,0.00,WeatherDisplay:10.37,2013-04-29 18:46:00,
2013-04-29 14:51:00,75.4,48.0,29.75,South,180,5.1,5.1,38,0.00,CLR,,0.00,WeatherDisplay:10.37,2013-04-29 18:51:00,
2013-04-29 14:56:00,75.7,48.3,29.81,South,180,5.1,5.1,38,0.00,CLR,,0.00,WeatherDisplay:10.37,2013-04-29 18:56:00,
2013-04-29 15:01:00,75.0,47.7,29.81,WNW,292,5.1,5.1,38,0.00,CLR,,0.00,WeatherDisplay:10.37,2013-04-29 19:01:00,
2013-04-29 15:06:00,74.7,47.4,29.75,ESE,112,5.9,5.9,38,0.00,CLR,,0.00,WeatherDisplay:10.37,2013-04-29 19:06:00,
2013-04-29 15:11:00,75.2,47.8,29.75,SE,135,5.9,5.9,38,0.00,CLR,,0.00,WeatherDisplay:10.37,2013-04-29 19:11:00,
2013-04-29 15:16:00,75.2,47.8,29.81,West,270,5.9,5.9,38,0.00,CLR,,0.00,WeatherDisplay:10.37,2013-04-29 19:16:00,
2013-04-29 15:21:00,75.6,48.2,29.80,SSW,202,5.9,5.9,38,0.00,CLR,,0.00,WeatherDisplay:10.37,2013-04-29 19:21:00,
2013-04-29 15:26:00,75.9,48.5,29.80,SSW,202,5.9,5.9,38,0.00,CLR,,0.00,WeatherDisplay:10.37,2013-04-29 19:26:00,
2013-04-29 15:31:00,74.8,47.5,29.79,WNW,292,5.9,5.9,38,0.00,CLR,,0.00,WeatherDisplay:10.37,2013-04-29 19:31:00,
2013-04-29 15:36:00,72.9,45.8,29.78,WSW,247,5.9,5.9,38,0.00,CLR,,0.00,WeatherDisplay:10.37,2013-04-29 19:36:00,
2013-04-29 15:41:00,71.8,44.8,29.78,WNW,292,5.9,5.9,38,0.00,CLR,,0.00,WeatherDisplay:10.37,2013-04-29 19:41:00,
2013-04-29 15:46:00,71.4,44.5,29.78,SW,225,5.9,5.9,38,0.00,CLR,,0.00,WeatherDisplay:10.37,2013-04-29 19:46:00,
2013-04-29 15:51:00,71.1,44.2,29.78,WSW,247,5.9,5.9,38,0.00,CLR,,0.00,WeatherDisplay:10.37,2013-04-29 19:51:00,
2013-04-29 15:56:00,71.2,44.3,29.77,WSW,247,5.9,5.9,38,0.00,CLR,,0.00,WeatherDisplay:10.37,2013-04-29 19:56:00,
2013-04-29 16:01:00,72.1,45.1,29.78,East,90,5.9,5.9,38,0.00,CLR,,0.00,WeatherDisplay:10.37,2013-04-29 20:01:00,
2013-04-29 16:06:00,72.1,45.1,29.77,NW,315,5.9,5.9,38,0.00,CLR,,0.00,WeatherDisplay:10.37,2013-04-29 20:06:00,
2013-04-29 16:11:00,71.8,44.8,29.77,WNW,292,3.5,3.5,38,0.00,CLR,,0.00,WeatherDisplay:10.37,2013-04-29 20:11:00,
2013-04-29 16:16:00,71.2,44.3,29.77,WSW,247,3.6,3.6,38,0.00,CLR,,0.00,WeatherDisplay:10.37,2013-04-29 20:16:00,
2013-04-29 16:21:00,72.1,45.1,29.75,South,180,3.6,3.6,38,0.00,CLR,,0.00,WeatherDisplay:10.37,2013-04-29 20:21:00,
2013-04-29 16:26:00,72.9,45.8,29.75,SSW,202,3.6,3.6,38,0.00,CLR,,0.00,WeatherDisplay:10.37,2013-04-29 20:26:00,
2013-04-29 16:31:00,72.9,45.8,29.75,SE,135,3.6,3.6,38,0.00,CLR,,0.00,WeatherDisplay:10.37,2013-04-29 20:31:00,
2013-04-29 16:36:00,72.0,45.0,29.75,NW,315,3.6,3.6,38,0.00,CLR,,0.00,WeatherDisplay:10.37,2013-04-29 20:36:00,
2013-04-29 16:41:00,71.4,44.5,29.75,West,270,3.6,3.6,38,0.00,CLR,,0.00,WeatherDisplay:10.37,2013-04-29 20:41:00,
2013-04-29 16:46:00,71.6,44.6,29.75,West,270,3.6,3.6,38,0.00,CLR,,0.00,WeatherDisplay:10.37,2013-04-29 20:46:00,
2013-04-29 16:51:00,72.1,45.1,29.75,SSW,202,3.6,3.6,38,0.00,CLR,,0.00,WeatherDisplay:10.37,2013-04-29 20:51:00,
2013-04-29 16:56:00,73.0,45.9,29.74,SSE,157,4.9,4.9,38,0.00,CLR,,0.00,WeatherDisplay:10.37,2013-04-29 20:56:00,
2013-04-29 17:01:00,73.0,45.9,29.73,SSE,157,4.9,4.9,38,0.00,CLR,,0.00,WeatherDisplay:10.37,2013-04-29 21:01:00,
2013-04-29 17:06:00,73.0,45.9,29.74,SSE,157,4.9,4.9,38,0.00,CLR,,0.00,WeatherDisplay:10.37,2013-04-29 21:06:00,
2013-04-29 17:11:00,72.5,45.4,29.74,West,270,2.6,2.6,38,0.00,CLR,,0.00,WeatherDisplay:10.37,2013-04-29 21:11:00,
2013-04-29 17:16:00,71.8,44.8,29.74,SSW,202,3.5,0.0,38,0.00,CLR,,0.00,WeatherDisplay:10.37,2013-04-29 21:16:00,
2013-04-29 17:21:00,72.0,45.0,29.73,SSE,157,4.6,4.6,38,0.00,CLR,,0.00,WeatherDisplay:10.37,2013-04-29 21:21:00,
2013-04-29 17:26:00,72.1,45.1,29.73,SE,135,4.6,4.6,38,0.00,CLR,,0.00,WeatherDisplay:10.37,2013-04-29 21:26:00,
2013-04-29 17:31:00,72.0,45.0,29.73,SW,225,4.6,4.6,38,0.00,CLR,,0.00,WeatherDisplay:10.37,2013-04-29 21:31:00,
2013-04-29 17:36:00,71.6,44.6,29.73,SW,225,4.6,4.6,38,0.00,CLR,,0.00,WeatherDisplay:10.37,2013-04-29 21:36:00,
2013-04-29 17:41:00,72.0,45.0,29.73,SW,225,4.6,4.6,38,0.00,CLR,,0.00,WeatherDisplay:10.37,2013-04-29 21:41:00,
2013-04-29 17:46:00,71.8,44.8,29.74,SW,225,4.6,4.6,38,0.00,CLR,,0.00,WeatherDisplay:10.37,2013-04-29 21:46:00,
2013-04-29 17:51:00,71.4,44.5,29.73,WSW,247,4.6,4.6,38,0.00,CLR,,0.00,WeatherDisplay:10.37,2013-04-29 21:51:00,
2013-04-29 17:56:00,71.4,44.5,29.73,South,180,4.6,4.6,38,0.00,CLR,,0.00,WeatherDisplay:10.37,2013-04-29 21:56:00,
2013-04-29 18:01:00,71.2,44.3,29.73,WSW,247,4.6,4.6,38,0.00,CLR,,0.00,WeatherDisplay:10.37,2013-04-29 22:01:00,
2013-04-29 18:06:00,71.1,44.2,29.73,SSE,157,4.6,4.6,38,0.00,CLR,,0.00,WeatherDisplay:10.37,2013-04-29 22:06:00,
2013-04-29 18:11:00,71.2,44.3,29.72,SSE,157,3.8,3.8,38,0.00,CLR,,0.00,WeatherDisplay:10.37,2013-04-29 22:11:00,
2013-04-29 18:16:00,71.2,45.0,29.77,South,180,3.8,3.8,39,0.00,CLR,,0.00,WeatherDisplay:10.37,2013-04-29 22:16:00,
2013-04-29 18:21:00,71.1,44.8,29.77,SSE,157,3.8,3.8,39,0.00,CLR,,0.00,WeatherDisplay:10.37,2013-04-29 22:21:00,
2013-04-29 18:26:00,70.7,44.5,29.76,South,180,3.8,3.8,39,0.00,CLR,,0.00,WeatherDisplay:10.37,2013-04-29 22:26:00,
2013-04-29 18:31:00,70.3,44.2,29.77,SSW,202,3.8,0.0,39,0.00,CLR,,0.00,WeatherDisplay:10.37,2013-04-29 22:31:00,
2013-04-29 18:36:00,70.2,44.0,29.76,SW,225,4.0,4.0,39,0.00,CLR,,0.00,WeatherDisplay:10.37,2013-04-29 22:36:00,
2013-04-29 18:41:00,69.8,43.7,29.77,SSW,202,4.0,4.0,39,0.00,CLR,,0.00,WeatherDisplay:10.37,2013-04-29 22:41:00,
2013-04-29 18:46:00,69.6,43.6,29.76,SSE,157,4.0,0.0,39,0.00,CLR,,0.00,WeatherDisplay:10.37,2013-04-29 22:46:00,
2013-04-29 18:51:00,69.4,43.4,29.77,SW,225,4.0,4.0,39,0.00,CLR,,0.00,WeatherDisplay:10.37,2013-04-29 22:51:00,
2013-04-29 18:56:00,69.3,43.2,29.77,SSW,202,4.0,4.0,39,0.00,CLR,,0.00,WeatherDisplay:10.37,2013-04-29 22:56:00,
2013-04-29 19:01:00,69.1,43.1,29.76,SSW,202,4.0,4.0,39,0.00,CLR,,0.00,WeatherDisplay:10.37,2013-04-29 23:01:00,
2013-04-29 19:06:00,69.1,43.1,29.77,SE,135,4.0,4.0,39,0.00,CLR,,0.00,WeatherDisplay:10.37,2013-04-29 23:06:00,
2013-04-29 19:11:00,68.9,42.9,29.76,South,180,3.8,3.8,39,0.00,CLR,,0.00,WeatherDisplay:10.37,2013-04-29 23:11:00,
2013-04-29 19:16:00,68.7,42.8,29.77,South,180,3.8,4.5,39,0.00,CLR,,0.00,WeatherDisplay:10.37,2013-04-29 23:16:00,
2013-04-29 19:21:00,68.5,42.6,29.77,SSE,157,4.6,4.6,39,0.00,CLR,,0.00,WeatherDisplay:10.37,2013-04-29 23:21:00,
2013-04-29 19:26:00,68.4,42.4,29.77,South,180,4.6,4.6,39,0.00,CLR,,0.00,WeatherDisplay:10.37,2013-04-29 23:26:00,
2013-04-29 19:31:00,68.2,42.3,29.77,SW,225,4.6,4.6,39,0.00,CLR,,0.00,WeatherDisplay:10.37,2013-04-29 23:31:00,
2013-04-29 19:36:00,68.0,41.4,29.77,SSW,202,4.6,4.6,38,0.00,CLR,,0.00,WeatherDisplay:10.37,2013-04-29 23:36:00,
2013-04-29 19:41:00,68.0,41.4,29.77,SSW,202,4.6,4.6,38,0.00,CLR,,0.00,WeatherDisplay:10.37,2013-04-29 23:41:00,
2013-04-29 19:46:00,67.5,41.0,29.77,SSE,157,4.6,4.6,38,0.00,CLR,,0.00,WeatherDisplay:10.37,2013-04-29 23:46:00,
2013-04-29 19:51:00,67.3,40.8,29.77,SW,225,4.6,4.6,38,0.00,CLR,,0.00,WeatherDisplay:10.37,2013-04-29 23:51:00,
2013-04-29 19:56:00,67.5,41.0,29.77,SE,135,4.6,4.6,38,0.00,CLR,,0.00,WeatherDisplay:10.37,2013-04-29 23:56:00,
2013-04-29 20:01:00,66.9,40.5,29.76,SSW,202,4.6,4.9,38,0.00,CLR,,0.00,WeatherDisplay:10.37,2013-04-30 00:01:00,
2013-04-29 20:06:00,66.7,40.3,29.77,South,180,4.9,4.9,38,0.00,CLR,,0.00,WeatherDisplay:10.37,2013-04-30 00:06:00,
2013-04-29 20:11:00,66.6,40.1,29.77,SE,135,2.6,2.6,38,0.00,CLR,,0.00,WeatherDisplay:10.37,2013-04-30 00:11:00,
2013-04-29 20:16:00,66.4,40.0,29.76,SSE,157,2.6,2.6,38,0.00,CLR,,0.00,WeatherDisplay:10.37,2013-04-30 00:16:00,
2013-04-29 20:21:00,66.4,40.0,29.76,South,180,2.6,2.6,38,0.00,CLR,,0.00,WeatherDisplay:10.37,2013-04-30 00:21:00,
2013-04-29 20:26:00,66.2,39.1,29.75,South,180,2.6,2.6,37,0.00,CLR,,0.00,WeatherDisplay:10.37,2013-04-30 00:26:00,
2013-04-29 20:31:00,65.7,38.7,29.75,South,180,2.6,0.0,37,0.00,CLR,,0.00,WeatherDisplay:10.37,2013-04-30 00:31:00,
2013-04-29 20:36:00,65.5,38.5,29.74,ESE,112,2.6,2.6,37,0.00,CLR,,0.00,WeatherDisplay:10.37,2013-04-30 00:36:00,
2013-04-29 20:41:00,65.1,38.2,29.75,ESE,112,2.6,0.0,37,0.00,CLR,,0.00,WeatherDisplay:10.37,2013-04-30 00:41:00,
2013-04-29 20:46:00,64.8,37.9,29.75,SE,135,2.6,2.6,37,0.00,CLR,,0.00,WeatherDisplay:10.37,2013-04-30 00:46:00,
2013-04-29 20:51:00,64.6,37.7,29.76,SSE,157,2.6,2.6,37,0.00,CLR,,0.00,WeatherDisplay:10.37,2013-04-30 00:51:00,
2013-04-29 20:56:00,64.4,37.5,29.75,SSE,157,2.6,0.0,37,0.00,CLR,,0.00,WeatherDisplay:10.37,2013-04-30 00:56:00,
2013-04-29 21:01:00,64.0,37.2,29.76,ESE,112,2.6,2.6,37,0.00,CLR,,0.00,WeatherDisplay:10.37,2013-04-30 01:01:00,
2013-04-29 21:06:00,63.9,37.7,29.76,SSE,157,2.6,0.0,38,0.00,CLR,,0.00,WeatherDisplay:10.37,2013-04-30 01:06:00,
2013-04-29 21:11:00,63.7,36.9,29.76,SE,135,1.3,0.0,37,0.00,CLR,,0.00,WeatherDisplay:10.37,2013-04-30 01:11:00,
2013-04-29 21:16:00,63.7,37.6,29.76,SE,135,1.3,0.0,38,0.00,CLR,,0.00,WeatherDisplay:10.37,2013-04-30 01:16:00,
2013-04-29 21:21:00,63.3,36.6,29.77,SE,135,1.3,0.0,37,0.00,CLR,,0.00,WeatherDisplay:10.37,2013-04-30 01:21:00,
2013-04-29 21:26:00,63.1,37.1,29.77,SSE,157,1.3,0.0,38,0.00,CLR,,0.00,WeatherDisplay:10.37,2013-04-30 01:26:00,
2013-04-29 21:31:00,63.0,36.9,29.78,SE,135,2.3,0.0,38,0.00,CLR,,0.00,WeatherDisplay:10.37,2013-04-30 01:31:00,
2013-04-29 21:36:00,62.8,36.8,29.78,SSE,157,2.3,0.0,38,0.00,CLR,,0.00,WeatherDisplay:10.37,2013-04-30 01:36:00,
2013-04-29 21:41:00,62.8,36.8,29.78,SE,135,2.3,2.3,38,0.00,CLR,,0.00,WeatherDisplay:10.37,2013-04-30 01:41:00,
2013-04-29 21:46:00,62.6,36.6,29.78,ESE,112,2.3,2.3,38,0.00,CLR,,0.00,WeatherDisplay:10.37,2013-04-30 01:46:00,
2013-04-29 21:51:00,62.4,36.5,29.77,ESE,112,2.3,2.3,38,0.00,CLR,,0.00,WeatherDisplay:10.37,2013-04-30 01:51:00,
2013-04-29 21:56:00,62.4,36.5,29.79,SSE,157,4.0,4.0,38,0.00,CLR,,0.00,WeatherDisplay:10.37,2013-04-30 01:56:00,
2013-04-29 22:01:00,62.1,36.1,29.79,ESE,112,4.0,4.0,38,0.00,CLR,,0.00,WeatherDisplay:10.37,2013-04-30 02:01:00,
2013-04-29 22:06:00,62.1,36.1,29.78,East,90,5.8,5.8,38,0.00,CLR,,0.00,WeatherDisplay:10.37,2013-04-30 02:06:00,
2013-04-29 22:11:00,61.9,36.0,29.78,East,90,4.0,4.0,38,0.00,CLR,,0.00,WeatherDisplay:10.37,2013-04-30 02:11:00,
2013-04-29 22:16:00,61.7,35.8,29.79,SE,135,4.0,4.0,38,0.00,CLR,,0.00,WeatherDisplay:10.37,2013-04-30 02:16:00,
2013-04-29 22:21:00,61.5,35.7,29.79,SE,135,4.0,4.0,38,0.00,CLR,,0.00,WeatherDisplay:10.37,2013-04-30 02:21:00,
2013-04-29 22:26:00,61.3,35.5,29.80,SSE,157,4.0,4.0,38,0.00,CLR,,0.00,WeatherDisplay:10.37,2013-04-30 02:26:00,
2013-04-29 22:31:00,61.2,35.3,29.80,SSE,157,4.0,4.0,38,0.00,CLR,,0.00,WeatherDisplay:10.37,2013-04-30 02:31:00,
2013-04-29 22:36:00,61.0,35.2,29.80,SSW,202,4.0,4.0,38,0.00,CLR,,0.00,WeatherDisplay:10.37,2013-04-30 02:36:00,
2013-04-29 22:41:00,61.0,35.2,29.80,SSE,157,4.0,4.0,38,0.00,CLR,,0.00,WeatherDisplay:10.37,2013-04-30 02:41:00,
2013-04-29 22:46:00,60.8,35.0,29.80,ENE,67,4.0,4.0,38,0.00,CLR,,0.00,WeatherDisplay:10.37,2013-04-30 02:46:00,
2013-04-29 22:51:00,60.8,35.0,29.80,SSW,202,4.0,4.0,38,0.00,CLR,,0.00,WeatherDisplay:10.37,2013-04-30 02:51:00,
2013-04-29 22:56:00,60.8,35.0,29.80,SE,135,4.0,4.0,38,0.00,CLR,,0.00,WeatherDisplay:10.37,2013-04-30 02:56:00,
2013-04-29 23:01:00,60.6,34.9,29.79,SSE,157,4.6,4.6,38,0.00,CLR,,0.00,WeatherDisplay:10.37,2013-04-30 03:01:00,
2013-04-29 23:06:00,60.6,34.9,29.79,SSE,157,4.6,4.6,38,0.00,CLR,,0.00,WeatherDisplay:10.37,2013-04-30 03:06:00,
2013-04-29 23:11:00,60.6,34.9,29.80,SSE,157,3.6,3.6,38,0.00,CLR,,0.00,WeatherDisplay:10.37,2013-04-30 03:11:00,
2013-04-29 23:16:00,60.4,34.7,29.80,SSE,157,4.6,4.6,38,0.00,CLR,,0.00,WeatherDisplay:10.37,2013-04-30 03:16:00,
2013-04-29 23:21:00,60.4,34.7,29.80,South,180,4.6,4.6,38,0.00,CLR,,0.00,WeatherDisplay:10.37,2013-04-30 03:21:00,
2013-04-29 23:27:00,60.3,34.5,29.81,SW,225,4.6,4.6,38,0.00,CLR,,0.00,WeatherDisplay:10.37,2013-04-30 03:27:00,
2013-04-29 23:32:00,60.1,34.4,29.81,SE,135,4.6,4.6,38,0.00,CLR,,0.00,WeatherDisplay:10.37,2013-04-30 03:32:00,
2013-04-29 23:37:00,59.9,34.2,29.82,SE,135,4.6,4.6,38,0.00,CLR,,0.00,WeatherDisplay:10.37,2013-04-30 03:37:00,
2013-04-29 23:42:00,59.9,34.2,29.82,SSE,157,4.6,4.6,38,0.00,CLR,,0.00,WeatherDisplay:10.37,2013-04-30 03:42:00,
2013-04-29 23:47:00,59.9,34.2,29.82,SSE,157,4.6,4.6,38,0.00,CLR,,0.00,WeatherDisplay:10.37,2013-04-30 03:47:00,
2013-04-29 23:52:00,59.7,34.0,29.81,SSE,157,4.6,4.6,38,0.00,CLR,,0.00,WeatherDisplay:10.37,2013-04-30 03:52:00,
2013-04-29 23:57:00,59.7,34.0,29.76,SSE,157,4.6,4.6,38,0.00,CLR,,0.00,WeatherDisplay:10.37,2013-04-30 03:57:00,